Regional Weather Roundup
Issued by NWS Raleigh/Durham, NC

Home | Current Version | Previous Version | Text Only | Print | Product List | Glossary On
Versions: 1 2 3 4 5 6 7 8 9 10 11 12 13 14 15 16 17 18 19 20 21 22 23 24 25 26 27 28 29 30 31 32 33 34 35 36 37 38 39 40 41 42 43 44 45 46 47 48 49 50
000
ASUS42 KRAH 171410
RWRRAH
NORTH CAROLINA WEATHER ROUNDUP
NATIONAL WEATHER SERVICE RALEIGH NC
1000 AM EDT TUE OCT 17 2017

NOTE: "FAIR" INDICATES FEW OR NO CLOUDS BELOW 12,000 FEET WITH NO
SIGNIFICANT WEATHER AND/OR OBSTRUCTIONS TO VISIBILITY.

NCZ001-053-055-056-065-067-171500-
WESTERN NORTH CAROLINA

CITY           SKY/WX    TMP DP  RH WIND       PRES   REMARKS
ASHEVILLE      SUNNY     46  40  79 NW5       30.38R
JEFFERSON      SUNNY     44  33  64 CALM      30.37R
MORGANTON      SUNNY     46  41  82 CALM      30.43R
HICKORY        SUNNY     51  44  77 NW3       30.38R
RUTHERFORDTON  SUNNY     53  41  63 N3        30.39R
MOUNT AIRY     SUNNY     52  41  65 N5        30.40S
BOONE          SUNNY     43  36  75 CALM      30.37S
$$

NCZ021-022-025-041-071-084-088-171500-
CENTRAL NORTH CAROLINA

CITY           SKY/WX    TMP DP  RH WIND       PRES   REMARKS
CHARLOTTE      MOSUNNY   57  42  57 NE10      30.37R
GREENSBORO     MOSUNNY   53  41  63 NE12      30.37R
WINSTON-SALEM  SUNNY     53  40  61 N10       30.38R
RALEIGH-DURHAM MOSUNNY   53  38  56 NE10G20   30.36R
FORT BRAGG     CLOUDY    55  41  60 NE9       30.34R
FAYETTEVILLE   CLOUDY    53  43  68 N13       30.34R
BURLINGTON     SUNNY     54  40  59 N8        30.37R
LAURINBURG     SUNNY     55  42  61 NE14      30.35R
$$

NCZ011-015-027-028-043-044-047-080-103-171500-
NORTHEASTERN NORTH CAROLINA

CITY           SKY/WX    TMP DP  RH WIND       PRES   REMARKS
ROCKY MT-WILSO SUNNY     54  44  69 N13       30.35R
GREENVILLE     SUNNY     52  45  76 N9        30.33R
WASHINGTON     SUNNY     55  45  69 N9        30.32R
ELIZABETH CITY SUNNY     58  47  66 N21       30.31R
MANTEO         MOSUNNY  N/A N/A N/A NE14G24   30.29R
CAPE HATTERAS  MOSUNNY   63  47  55 NE16G29   30.25R
$$

NCZ078-087-090-091-093-098-101-171500-
SOUTHEASTERN NORTH CAROLINA

CITY           SKY/WX    TMP DP  RH WIND       PRES   REMARKS
LUMBERTON      MOSUNNY   55  41  59 NE13      30.33
GOLDSBORO      CLOUDY    53  42  67 NE9       30.32R
KINSTON        CLOUDY    54  45  71 N12       30.34R
KENANSVILLE    MOSUNNY   54  43  66 N12       30.33R
NEW BERN       SUNNY     55  46  71 N12       30.31R
CHERRY POINT   CLOUDY    58  49  72 N14       30.28S
BEAUFORT       MOSUNNY   60  50  69 N14G21    30.26R
JACKSONVILLE     N/A     54  46  74 MISG      30.29R
WILMINGTON     CLOUDY    58  43  57 N12       30.29R
$$




USA.gov is the U.S. government's official web portal to all federal, state and local government web resources and services.